Вернуться в каталог

STARLINK-11512

АктивенСвязьVLEO
NORAD 62517·PAYLOAD·🇺🇸 United States

Запущен Jan 8, 2025 с Cape Canaveral Space Force Station

Loading…

Ближайшие Пролёты (ближайшие 24 часа)

TLE

СвежийSource: CelesTrak SupGP

Эпоха: Sep 14, 2026, 21:25 UTC

1 62517C 25004G   26257.89284722  .00027325  00000+0  21215-3 0  2575
2 62517  43.0008   9.8705 0001675 275.6193 306.2531 15.70833241    14

Отслеживайте STARLINK-11512 в реальном времени с AllMySat

Download on the App Store